Time,TemperatureF,DewpointF,PressureIn,WindDirection,WindDirectionDegrees,WindSpeedMPH,WindSpeedGustMPH,Humidity,HourlyPrecipIn,Conditions,Clouds,dailyrainin,SoftwareType,DateUTC
2013-01-11 00:03:00,30.0,21.0,30.50,North,356,3.0,5.0,68,0.00,,,0.00,,2013-01-11 05:03:00,
2013-01-11 00:13:00,30.0,21.0,30.50,North,356,3.0,5.0,68,0.00,,,0.00,,2013-01-11 05:13:00,
2013-01-11 00:22:00,29.0,20.0,30.51,NNW,331,4.0,6.0,70,0.00,,,0.00,,2013-01-11 05:22:00,
2013-01-11 00:33:00,29.0,21.0,30.50,NNW,337,4.0,5.0,71,0.00,,,0.00,,2013-01-11 05:33:00,
2013-01-11 00:43:00,29.0,21.0,30.50,NNW,337,4.0,5.0,71,0.00,,,0.00,,2013-01-11 05:43:00,
2013-01-11 00:53:00,29.0,21.0,30.50,North,0,3.0,-999.0,72,-99.99,,,-99.99,,2013-01-11 05:53:00,
2013-01-11 01:03:00,29.0,21.0,30.49,North,1,5.0,-999.0,72,-99.99,,,-99.99,,2013-01-11 06:03:00,
2013-01-11 01:12:00,29.0,21.0,30.49,North,1,5.0,-999.0,72,-99.99,,,-99.99,,2013-01-11 06:12:00,
2013-01-11 01:22:00,29.0,21.0,30.48,North,0,4.0,6.0,72,0.00,,,0.00,,2013-01-11 06:22:00,
2013-01-11 01:32:00,28.0,20.0,30.48,North,0,4.0,5.0,73,0.00,,,0.00,,2013-01-11 06:32:00,
2013-01-11 01:42:00,28.0,20.0,30.48,North,0,4.0,5.0,73,0.00,,,0.00,,2013-01-11 06:42:00,
2013-01-11 01:52:00,28.0,21.0,30.48,North,0,1.0,4.0,74,0.00,,,0.00,,2013-01-11 06:52:00,
2013-01-11 02:02:00,27.0,20.0,30.48,North,0,1.0,-999.0,75,-99.99,,,-99.99,,2013-01-11 07:02:00,
2013-01-11 02:12:00,27.0,20.0,30.47,North,0,2.0,-999.0,76,-99.99,,,-99.99,,2013-01-11 07:12:00,
2013-01-11 02:22:00,27.0,20.0,30.47,North,0,2.0,-999.0,76,-99.99,,,-99.99,,2013-01-11 07:22:00,
2013-01-11 02:32:00,27.0,20.0,30.47,NNW,342,1.0,-999.0,76,-99.99,,,-99.99,,2013-01-11 07:32:00,
2013-01-11 02:42:00,27.0,20.0,30.48,NNW,343,0.0,-999.0,76,-99.99,,,-99.99,,2013-01-11 07:42:00,
2013-01-11 02:52:00,27.0,20.0,30.48,NNW,343,0.0,-999.0,76,-99.99,,,-99.99,,2013-01-11 07:52:00,
2013-01-11 03:02:00,27.0,21.0,30.47,NNW,343,1.0,-999.0,77,-99.99,,,-99.99,,2013-01-11 08:02:00,
2013-01-11 03:12:00,26.0,20.0,30.47,NNW,343,5.0,-999.0,78,-99.99,,,-99.99,,2013-01-11 08:12:00,
2013-01-11 03:22:00,26.0,20.0,30.47,NNW,343,5.0,-999.0,78,-99.99,,,-99.99,,2013-01-11 08:22:00,
2013-01-11 03:32:00,27.0,21.0,30.47,NNW,343,4.0,-999.0,77,-99.99,,,-99.99,,2013-01-11 08:32:00,
2013-01-11 03:42:00,27.0,21.0,30.47,NNW,343,4.0,-999.0,77,-99.99,,,-99.99,,2013-01-11 08:42:00,
2013-01-11 03:53:00,27.0,21.0,30.45,NNW,343,0.0,-999.0,77,-99.99,,,-99.99,,2013-01-11 08:53:00,
2013-01-11 04:02:00,26.0,20.0,30.45,NNW,343,2.0,-999.0,77,-99.99,,,-99.99,,2013-01-11 09:02:00,
2013-01-11 04:12:00,26.0,20.0,30.45,NNW,343,2.0,-999.0,77,-99.99,,,-99.99,,2013-01-11 09:12:00,
2013-01-11 04:23:00,27.0,20.0,30.45,NNW,343,2.0,-999.0,76,-99.99,,,-99.99,,2013-01-11 09:23:00,
2013-01-11 04:32:00,26.0,20.0,30.45,NNW,343,2.0,-999.0,77,-99.99,,,-99.99,,2013-01-11 09:32:00,
2013-01-11 04:42:00,26.0,20.0,30.45,NNW,343,2.0,-999.0,77,-99.99,,,-99.99,,2013-01-11 09:42:00,
2013-01-11 04:52:00,26.0,20.0,30.44,NNW,348,0.0,-999.0,78,-99.99,,,-99.99,,2013-01-11 09:52:00,
2013-01-11 05:02:00,26.0,20.0,30.44,North,355,3.0,-999.0,79,-99.99,,,-99.99,,2013-01-11 10:02:00,
2013-01-11 05:12:00,26.0,20.0,30.44,North,355,3.0,-999.0,79,-99.99,,,-99.99,,2013-01-11 10:12:00,
2013-01-11 05:22:00,25.0,20.0,30.43,North,0,3.0,-999.0,80,-99.99,,,-99.99,,2013-01-11 10:22:00,
2013-01-11 05:32:00,25.0,20.0,30.44,NNE,25,4.0,-999.0,80,-99.99,,,-99.99,,2013-01-11 10:32:00,
2013-01-11 05:42:00,25.0,20.0,30.44,NNE,25,4.0,-999.0,80,-99.99,,,-99.99,,2013-01-11 10:42:00,
2013-01-11 05:53:00,25.0,20.0,30.44,NNE,26,0.0,-999.0,80,-99.99,,,-99.99,,2013-01-11 10:53:00,
2013-01-11 06:03:00,25.0,20.0,30.45,NNE,24,2.0,-999.0,81,-99.99,,,-99.99,,2013-01-11 11:03:00,
2013-01-11 06:12:00,25.0,20.0,30.45,NNE,24,2.0,-999.0,81,-99.99,,,-99.99,,2013-01-11 11:12:00,
2013-01-11 06:22:00,26.0,21.0,30.44,NNE,18,3.0,-999.0,80,-99.99,,,-99.99,,2013-01-11 11:22:00,
2013-01-11 06:33:00,26.0,21.0,30.45,NNE,17,3.0,-999.0,80,-99.99,,,-99.99,,2013-01-11 11:33:00,
2013-01-11 06:42:00,26.0,21.0,30.45,NNE,17,3.0,-999.0,80,-99.99,,,-99.99,,2013-01-11 11:42:00,
2013-01-11 06:53:00,26.0,21.0,30.45,NNE,17,3.0,-999.0,80,-99.99,,,-99.99,,2013-01-11 11:53:00,
2013-01-11 07:03:00,26.0,21.0,30.45,NNE,17,4.0,-999.0,80,-99.99,,,-99.99,,2013-01-11 12:03:00,
2013-01-11 07:12:00,26.0,21.0,30.45,NNE,17,4.0,-999.0,80,-99.99,,,-99.99,,2013-01-11 12:12:00,
2013-01-11 07:22:00,27.0,21.0,30.45,NNE,16,0.0,-999.0,79,-99.99,,,-99.99,,2013-01-11 12:22:00,
2013-01-11 07:33:00,27.0,21.0,30.45,NNE,16,4.0,-999.0,79,-99.99,,,-99.99,,2013-01-11 12:33:00,
2013-01-11 07:42:00,27.0,21.0,30.45,NNE,16,4.0,-999.0,79,-99.99,,,-99.99,,2013-01-11 12:42:00,
2013-01-11 07:53:00,27.0,21.0,30.45,NNE,16,2.0,-999.0,79,-99.99,,,-99.99,,2013-01-11 12:53:00,
2013-01-11 08:03:00,27.0,21.0,30.46,NNE,16,0.0,-999.0,79,-99.99,,,-99.99,,2013-01-11 13:03:00,
2013-01-11 08:13:00,27.0,21.0,30.46,NNE,16,0.0,-999.0,79,-99.99,,,-99.99,,2013-01-11 13:13:00,
2013-01-11 08:22:00,27.0,21.0,30.46,NNE,16,0.0,-999.0,79,-99.99,,,-99.99,,2013-01-11 13:22:00,
2013-01-11 08:33:00,27.0,22.0,30.46,NNE,16,0.0,-999.0,80,-99.99,,,-99.99,,2013-01-11 13:33:00,
2013-01-11 08:42:00,27.0,22.0,30.46,NNE,16,0.0,-999.0,80,-99.99,,,-99.99,,2013-01-11 13:42:00,
2013-01-11 08:53:00,28.0,21.0,30.46,NNE,16,0.0,-999.0,76,-99.99,,,-99.99,,2013-01-11 13:53:00,
2013-01-11 09:03:00,28.0,21.0,30.47,NNE,16,0.0,-999.0,76,-99.99,,,-99.99,,2013-01-11 14:03:00,
2013-01-11 09:12:00,28.0,21.0,30.47,NNE,16,0.0,-999.0,76,-99.99,,,-99.99,,2013-01-11 14:12:00,
2013-01-11 09:23:00,29.0,23.0,30.46,NNE,16,0.0,-999.0,77,-99.99,,,-99.99,,2013-01-11 14:23:00,
2013-01-11 09:33:00,30.0,23.0,30.46,NNE,18,1.0,-999.0,75,-99.99,,,-99.99,,2013-01-11 14:33:00,
2013-01-11 09:43:00,31.0,24.0,30.45,NNE,24,0.0,-999.0,74,-99.99,,,-99.99,,2013-01-11 14:43:00,
2013-01-11 09:53:00,31.0,24.0,30.45,NNE,24,0.0,-999.0,74,-99.99,,,-99.99,,2013-01-11 14:53:00,
2013-01-11 10:03:00,31.0,23.0,30.45,NNE,25,0.0,-999.0,72,-99.99,,,-99.99,,2013-01-11 15:03:00,
2013-01-11 10:13:00,32.0,23.0,30.44,NNE,25,3.0,-999.0,69,-99.99,,,-99.99,,2013-01-11 15:13:00,
2013-01-11 10:23:00,32.0,23.0,30.44,NNE,25,3.0,-999.0,69,-99.99,,,-99.99,,2013-01-11 15:23:00,
2013-01-11 10:33:00,33.0,24.0,30.43,NNE,30,1.0,-999.0,68,-99.99,,,-99.99,,2013-01-11 15:33:00,
2013-01-11 10:43:00,33.0,24.0,30.43,NNE,30,1.0,-999.0,68,-99.99,,,-99.99,,2013-01-11 15:43:00,
2013-01-11 10:53:00,34.0,23.0,30.43,NE,40,6.0,-999.0,65,-99.99,,,-99.99,,2013-01-11 15:53:00,
2013-01-11 11:03:00,34.0,23.0,30.42,ESE,112,4.0,-999.0,64,-99.99,,,-99.99,,2013-01-11 16:03:00,
2013-01-11 11:12:00,35.0,24.0,30.41,ESE,118,4.0,-999.0,64,-99.99,,,-99.99,,2013-01-11 16:12:00,
2013-01-11 11:23:00,35.0,24.0,30.41,ESE,118,4.0,-999.0,64,-99.99,,,-99.99,,2013-01-11 16:23:00,
2013-01-11 11:33:00,35.0,24.0,30.42,SE,126,4.0,-999.0,64,-99.99,,,-99.99,,2013-01-11 16:33:00,
2013-01-11 11:43:00,35.0,24.0,30.42,SE,126,4.0,-999.0,64,-99.99,,,-99.99,,2013-01-11 16:43:00,
2013-01-11 11:53:00,36.0,25.0,30.41,SE,129,1.0,-999.0,65,-99.99,,,-99.99,,2013-01-11 16:53:00,
2013-01-11 12:03:00,36.0,25.0,30.41,SE,129,0.0,-999.0,65,-99.99,,,-99.99,,2013-01-11 17:03:00,
2013-01-11 12:12:00,35.0,25.0,30.39,SE,129,0.0,-999.0,66,-99.99,,,-99.99,,2013-01-11 17:12:00,
2013-01-11 12:22:00,35.0,25.0,30.39,SE,129,0.0,-999.0,66,-99.99,,,-99.99,,2013-01-11 17:22:00,
2013-01-11 12:33:00,35.0,25.0,30.38,SE,130,0.0,-999.0,67,-99.99,,,-99.99,,2013-01-11 17:33:00,
2013-01-11 12:43:00,35.0,25.0,30.38,SE,130,0.0,-999.0,67,-99.99,,,-99.99,,2013-01-11 17:43:00,
2013-01-11 12:53:00,35.0,25.0,30.37,SE,132,1.0,-999.0,66,-99.99,,,-99.99,,2013-01-11 17:53:00,
2013-01-11 13:03:00,35.0,24.0,30.36,SE,132,0.0,-999.0,65,-99.99,,,-99.99,,2013-01-11 18:03:00,
2013-01-11 13:13:00,35.0,24.0,30.36,SE,132,0.0,-999.0,65,-99.99,,,-99.99,,2013-01-11 18:13:00,
2013-01-11 13:23:00,36.0,25.0,30.37,SE,132,0.0,-999.0,65,-99.99,,,-99.99,,2013-01-11 18:23:00,
2013-01-11 13:33:00,36.0,25.0,30.36,SE,132,0.0,4.0,65,0.00,,,0.00,,2013-01-11 18:33:00,
2013-01-11 13:43:00,36.0,25.0,30.36,SE,132,0.0,4.0,65,0.00,,,0.00,,2013-01-11 18:43:00,
2013-01-11 13:53:00,36.0,26.0,30.34,SE,132,2.0,4.0,66,0.00,,,0.00,,2013-01-11 18:53:00,
2013-01-11 14:03:00,36.0,26.0,30.35,SE,133,0.0,2.0,67,0.00,,,0.00,,2013-01-11 19:03:00,
2013-01-11 14:12:00,36.0,26.0,30.35,SE,133,0.0,2.0,67,0.00,,,0.00,,2013-01-11 19:12:00,
2013-01-11 14:22:00,36.0,26.0,30.33,SE,134,2.0,5.0,67,0.00,,,0.00,,2013-01-11 19:22:00,
2013-01-11 14:32:00,36.0,26.0,30.33,SE,135,1.0,5.0,67,0.00,,,0.00,,2013-01-11 19:32:00,
2013-01-11 14:43:00,36.0,26.0,30.33,SE,135,1.0,5.0,67,0.00,,,0.00,,2013-01-11 19:43:00,
2013-01-11 14:54:00,36.0,26.0,30.33,SE,136,1.0,-999.0,68,-99.99,,,-99.99,,2013-01-11 19:54:00,
2013-01-11 15:03:00,36.0,26.0,30.33,SE,136,0.0,-999.0,68,-99.99,,,-99.99,,2013-01-11 20:03:00,
2013-01-11 15:12:00,36.0,26.0,30.33,SE,136,0.0,-999.0,68,-99.99,,,-99.99,,2013-01-11 20:12:00,
2013-01-11 15:22:00,36.0,27.0,30.31,ESE,123,3.0,-999.0,69,-99.99,,,-99.99,,2013-01-11 20:22:00,
2013-01-11 15:33:00,36.0,27.0,30.31,SE,129,3.0,-999.0,70,-99.99,,,-99.99,,2013-01-11 20:33:00,
2013-01-11 15:43:00,36.0,27.0,30.31,SE,129,3.0,-999.0,70,-99.99,,,-99.99,,2013-01-11 20:43:00,
2013-01-11 15:53:00,37.0,28.0,30.31,SE,145,0.0,-999.0,70,-99.99,,,-99.99,,2013-01-11 20:53:00,
2013-01-11 16:03:00,36.0,27.0,30.31,SE,145,4.0,-999.0,70,-99.99,,,-99.99,,2013-01-11 21:03:00,
2013-01-11 16:12:00,36.0,28.0,30.30,SE,144,1.0,5.0,72,0.00,,,0.00,,2013-01-11 21:12:00,
2013-01-11 16:23:00,36.0,28.0,30.30,SE,144,1.0,5.0,72,0.00,,,0.00,,2013-01-11 21:23:00,
2013-01-11 16:33:00,36.0,29.0,30.29,SE,143,3.0,4.0,77,0.00,,,0.00,,2013-01-11 21:33:00,
2013-01-11 16:42:00,36.0,29.0,30.29,SE,143,3.0,4.0,77,0.00,,,0.00,,2013-01-11 21:42:00,
2013-01-11 16:53:00,35.0,30.0,30.29,SE,142,0.0,2.0,81,0.00,,,0.00,,2013-01-11 21:53:00,
2013-01-11 17:03:00,35.0,30.0,30.28,SE,142,3.0,4.0,83,0.00,,,0.00,,2013-01-11 22:03:00,
2013-01-11 17:12:00,34.0,30.0,30.27,SE,140,4.0,8.0,85,0.01,,,0.01,,2013-01-11 22:12:00,
2013-01-11 17:22:00,34.0,30.0,30.27,SE,140,4.0,8.0,85,0.01,,,0.01,,2013-01-11 22:22:00,
2013-01-11 17:33:00,34.0,31.0,30.27,SE,140,4.0,6.0,87,0.01,,,0.01,,2013-01-11 22:33:00,
2013-01-11 17:42:00,34.0,31.0,30.27,SE,140,4.0,6.0,87,0.01,,,0.01,,2013-01-11 22:42:00,
2013-01-11 17:53:00,34.0,31.0,30.27,SE,140,4.0,6.0,89,0.02,,,0.02,,2013-01-11 22:53:00,
2013-01-11 18:02:00,34.0,31.0,30.27,SE,140,5.0,6.0,89,0.02,,,0.02,,2013-01-11 23:02:00,
2013-01-11 18:13:00,34.0,31.0,30.27,SE,140,5.0,6.0,89,0.02,,,0.02,,2013-01-11 23:13:00,
2013-01-11 18:23:00,34.0,31.0,30.27,SE,137,6.0,8.0,90,0.01,,,0.02,,2013-01-11 23:23:00,
2013-01-11 18:32:00,33.0,30.0,30.25,SE,129,7.0,10.0,90,0.02,,,0.03,,2013-01-11 23:32:00,
2013-01-11 18:43:00,33.0,30.0,30.25,SE,129,7.0,10.0,90,0.02,,,0.03,,2013-01-11 23:43:00,
2013-01-11 18:53:00,34.0,32.0,30.24,SE,133,7.0,-999.0,91,-99.99,,,-99.99,,2013-01-11 23:53:00,
2013-01-11 19:02:00,34.0,32.0,30.24,SE,134,4.0,-999.0,91,-99.99,,,-99.99,,2013-01-12 00:02:00,
2013-01-11 19:12:00,34.0,32.0,30.23,SE,135,6.0,-999.0,92,-99.99,,,-99.99,,2013-01-12 00:12:00,
2013-01-11 19:23:00,34.0,32.0,30.23,SE,135,6.0,-999.0,92,-99.99,,,-99.99,,2013-01-12 00:23:00,
2013-01-11 19:33:00,34.0,32.0,30.23,SSE,152,3.0,-999.0,92,-99.99,,,-99.99,,2013-01-12 00:33:00,
2013-01-11 19:43:00,34.0,32.0,30.23,SSE,152,3.0,-999.0,92,-99.99,,,-99.99,,2013-01-12 00:43:00,
2013-01-11 19:53:00,34.0,32.0,30.23,SE,139,8.0,-999.0,92,-99.99,,,-99.99,,2013-01-12 00:53:00,
2013-01-11 20:02:00,35.0,33.0,30.23,SE,143,6.0,-999.0,93,-99.99,,,-99.99,,2013-01-12 01:02:00,
2013-01-11 20:12:00,35.0,33.0,30.23,SE,143,6.0,-999.0,93,-99.99,,,-99.99,,2013-01-12 01:12:00,
2013-01-11 20:22:00,34.0,32.0,30.22,SE,146,4.0,-999.0,93,-99.99,,,-99.99,,2013-01-12 01:22:00,
2013-01-11 20:33:00,34.0,32.0,30.22,SE,138,8.0,-999.0,93,-99.99,,,-99.99,,2013-01-12 01:33:00,
2013-01-11 20:43:00,34.0,32.0,30.22,SE,138,8.0,-999.0,93,-99.99,,,-99.99,,2013-01-12 01:43:00,
2013-01-11 20:53:00,35.0,33.0,30.20,SE,146,8.0,-999.0,93,-99.99,,,-99.99,,2013-01-12 01:53:00,
2013-01-11 21:02:00,35.0,33.0,30.21,SE,135,6.0,-999.0,94,-99.99,,,-99.99,,2013-01-12 02:02:00,
2013-01-11 21:12:00,35.0,33.0,30.21,SE,135,6.0,-999.0,94,-99.99,,,-99.99,,2013-01-12 02:12:00,
2013-01-11 21:22:00,35.0,33.0,30.19,SE,133,6.0,9.0,94,-99.99,,,-99.99,,2013-01-12 02:22:00,
2013-01-11 21:33:00,35.0,33.0,30.20,SSE,149,3.0,10.0,94,-99.99,,,-99.99,,2013-01-12 02:33:00,
2013-01-11 21:43:00,35.0,33.0,30.20,SSE,149,3.0,10.0,94,-99.99,,,-99.99,,2013-01-12 02:43:00,
2013-01-11 21:53:00,35.0,33.0,30.20,SE,139,5.0,9.0,94,-99.99,,,-99.99,,2013-01-12 02:53:00,
2013-01-11 22:03:00,35.0,33.0,30.19,SE,129,6.0,11.0,94,-99.99,,,-99.99,,2013-01-12 03:03:00,
2013-01-11 22:12:00,35.0,33.0,30.19,SE,129,6.0,11.0,94,-99.99,,,-99.99,,2013-01-12 03:12:00,
2013-01-11 22:22:00,36.0,34.0,30.17,SE,125,7.0,13.0,94,0.05,,,-99.99,,2013-01-12 03:22:00,
2013-01-11 22:33:00,36.0,35.0,30.17,SE,134,9.0,13.0,95,0.04,,,-99.99,,2013-01-12 03:33:00,
2013-01-11 22:43:00,36.0,35.0,30.17,SE,134,9.0,13.0,95,0.04,,,-99.99,,2013-01-12 03:43:00,
2013-01-11 22:53:00,37.0,36.0,30.16,SSE,153,7.0,-999.0,95,-99.99,,,-99.99,,2013-01-12 03:53:00,
2013-01-11 23:02:00,37.0,36.0,30.18,SE,146,3.0,-999.0,95,-99.99,,,-99.99,,2013-01-12 04:02:00,
2013-01-11 23:12:00,37.0,36.0,30.18,SE,146,3.0,-999.0,95,-99.99,,,-99.99,,2013-01-12 04:12:00,
2013-01-11 23:22:00,37.0,36.0,30.18,SE,139,6.0,10.0,95,0.00,,,0.00,,2013-01-12 04:22:00,
2013-01-11 23:32:00,37.0,36.0,30.17,SE,139,7.0,12.0,96,0.00,,,0.00,,2013-01-12 04:32:00,
2013-01-11 23:42:00,37.0,36.0,30.17,SE,139,7.0,12.0,96,0.00,,,0.00,,2013-01-12 04:42:00,
2013-01-11 23:52:00,38.0,37.0,30.18,SE,136,4.0,10.0,95,0.00,,,0.00,,2013-01-12 04:52:00,